Regional Weather Roundup
Issued by NWS

Home | Current Version | Previous Version | Text Only | Print | Product List | Glossary On
Versions: 1 2 3 4 5 6 7 8 9 10 11 12 13 14 15 16 17 18 19 20 21 22 23 24 25 26 27 28 29 30 31 32 33 34 35 36 37 38 39 40 41 42 43 44 45 46 47 48 49 50
737
ASUS44 KLIX 241910
RWRLA
LOUISIANA WEATHER ROUNDUP
NATIONAL WEATHER SERVICE NEW ORLEANS LA
200 PM CDT THU JUL 24 2014

NOTE: "FAIR" INDICATES FEW OR NO CLOUDS BELOW 12,000 FEET WITH NO
      SIGNIFICANT WEATHER AND/OR OBSTRUCTIONS TO VISIBILITY.
      SKY/WX - SKY CONDITION AND SIGNIFICANT WEATHER.
      TMP - AIR TEMPERATURE.    DP   - DEWPOINT TEMPERATURE.
      RH  - RELATIVE HUMIDITY.  PRES - PRESSURE.
      HX  - HEAT INDEX.         WCI  - WIND CHILL INDEX.

*  THESE STATIONS ARE NOT NWS OR FAA STATIONS AND ARE NOT UNDER
   NWS QUALITY CONTROL.

LAZ040-048-061>063-065-066-069-242000-
SOUTHEAST LOUISIANA

CITY           SKY/WX    TMP DP  RH WIND       PRES   REMARKS
N.O. AUDUBON     N/A     93  76  56 MISG        N/A  HX 105
N.O. INTL ARPT PTSUNNY   88  75  65 NE7       29.98F HX  97
N.O. LAKEFRONT MOSUNNY   87  72  60 N3        29.99F
N.O. DOWNTOWN* FAIR      88  70  55 N5        29.98F
SLIDELL        PTSUNNY   88  71  57 MISG      29.97F
BATON ROUGE    PTSUNNY   90  73  57 VRB5      29.99F HX  98
BOOTHVILLE     SUNNY     85  74  69 SW12      30.00F
BELLE CHASSE   PTSUNNY   86  72  62 E6        29.97F
BOGALUSA*      FAIR      91  68  47 CALM      30.00F
GALLIANO*      NOT AVBL
NEW ROADS*     FAIR      87  73  62 CALM      30.00F HX  95
GONZALES*      MOCLDY    88  72  58 CALM      29.98F HX  95
HAMMOND*       PTSUNNY   91  70  49 N5        30.00F HX  97
HOUMA*         MOSUNNY   90  70  51 W5        29.98F HX  95
PORT FOURCHON* CLEAR     82  72  69 W8        30.01F

$$

LAZ041-044-053-054-242000-
SOUTHWEST LOUISIANA

CITY           SKY/WX    TMP DP  RH WIND       PRES   REMARKS
LAKE CHARLES   PTSUNNY   88  72  58 NW5       30.00F
LAFAYETTE      PTSUNNY   88  73  61 S6        29.99F HX  95
PATTERSON      SUNNY    N/A N/A N/A W3        30.03F
SALT POINT       N/A     89  76  65 SW5       29.99F HX 100
NEW IBERIA     MOSUNNY   90  71  53 CALM      29.99F HX  96
CHENAULT AIRPK PTSUNNY   88  72  58 NE5       30.01F

$$

LAZ027-028-242000-
CENTRAL LOUISIANA

CITY           SKY/WX    TMP DP  RH WIND       PRES   REMARKS
FORT POLK      PTSUNNY   85  72  65 CALM      30.02S
ALEXANDRIA INT MOSUNNY   89  73  59 VRB5      29.99F HX  97
ALEXANDRIA     PTSUNNY   90  73  57 MISG      30.01S HX  98

$$

LAZ001-002-242000-
NORTHWEST LOUISIANA

CITY           SKY/WX    TMP DP  RH WIND       PRES   REMARKS
SHREVEPORT     CLOUDY    81  70  69 E3        30.04F
BARKSDALE AFB  CLOUDY    79  70  73 VRB1      30.04F
DTN SHREVEPORT NOT AVBL

$$

LAZ014-016-242000-
NORTHEAST LOUISIANA

CITY           SKY/WX    TMP DP  RH WIND       PRES   REMARKS
MONROE         PTSUNNY   87  75  67 CALM      30.02F HX  96
TALLULAH       PTSUNNY   90  75  61 CALM      30.00F HX 100

$$




USA.gov is the U.S. government's official web portal to all federal, state and local government web resources and services.